Bremerton, WA

3:05 AM PST on December 07, 2019 (GMT -0800)
Bremerton National

Weather History for KPWT - August, 2019

Change the Weather History Date:

Wednesday, August 28, 2019

  Actual Average Record
Temperature  
Mean Temperature 71 °F -  
Max Temperature 88 °F 72 °F 90 °F (2017)
Min Temperature 55 °F 49 °F 39 °F (2010)
Cooling Degree Days 6    
Growing Degree Days 21 (Base 50)    
Moisture  
Dew Point 56 °F    
Average Humidity 58    
Maximum Humidity 89    
Minimum Humidity 35    
Precipitation  
Precipitation 0.00 in - - ()
Sea Level Pressure  
Sea Level Pressure 29.91 in    
Wind  
Wind Speed 7 mph ()    
Max Wind Speed 14 mph    
Max Gust Speed -    
Visibility 10.0 miles    
Events      
Averages and records for this station are not official NWS values.
T = Trace of Precipitation, MM = Missing Value Source: Averaged Metar Reports

Daily Weather History Graph

Daily Weather History Graph

Search for Another Location

Airport or City:

Astronomy

Aug. 28, 2019 Rise Set
Actual Time 6:24 AM PDT 7:59 PM PDT
Civil Twilight 5:52 AM PDT 8:31 PM PDT
Nautical Twilight 5:12 AM PDT 9:10 PM PDT
Astronomical Twilight 4:29 AM PDT 9:52 PM PDT
Moon 3:49 AM PDT (8/28) 7:25 PM PDT (8/28)
Length of Visible Light 14h 39m
Length of Day
13h 35m
Waning Crescent, 4% of the Moon is Illuminated
Aug 28
Waning Crescent
Aug 30
New
Sep 5
First Quarter
Sep 13
Full
Sep 21
Last Quarter

Hourly Weather History & Observations

Time (PDT) Temp. Heat Index Dew Point Humidity Pressure Visibility Wind Dir Wind Speed Gust Speed Precip Events Conditions
12:56 AM 66.9 °F - 53.1 °F 61% - 10.0 mi NE 11.5 mph - N/A   Clear
1:56 AM 68.0 °F - 53.1 °F 59% 29.91 in 10.0 mi NE 13.8 mph - N/A   Clear
2:56 AM 66.9 °F - 53.1 °F 61% 29.91 in 10.0 mi NE 10.4 mph - N/A   Clear
3:56 AM 66.9 °F - 53.1 °F 61% 29.90 in 10.0 mi NE 8.1 mph - N/A   Clear
4:56 AM 57.9 °F - 52.0 °F 81% 29.90 in 10.0 mi Calm Calm - N/A   Clear
5:56 AM 55.0 °F - 52.0 °F 89% 29.91 in 10.0 mi Calm Calm - N/A   Clear
6:56 AM 55.0 °F - 51.1 °F 86% 29.92 in 10.0 mi Calm Calm - N/A   Clear
7:56 AM 66.0 °F - 55.9 °F 70% 29.92 in 10.0 mi Variable 5.8 mph - N/A   Clear
8:56 AM 72.0 °F - 57.9 °F 61% 29.92 in 10.0 mi NE 9.2 mph - N/A   Clear
9:56 AM 75.0 °F - 57.9 °F 55% 29.92 in 10.0 mi NE 11.5 mph - N/A   Clear
10:56 AM 77.0 °F - 59.0 °F 54% 29.93 in 10.0 mi NE 10.4 mph - N/A   Clear
12:56 PM 82.9 °F 82.8 °F 59.0 °F 44% 29.92 in 10.0 mi Variable 6.9 mph - N/A   Clear
1:56 PM 84.0 °F 83.5 °F 57.9 °F 41% 29.91 in 10.0 mi Variable 5.8 mph - N/A   Clear
2:56 PM 86.0 °F 84.9 °F 57.0 °F 37% 29.90 in 10.0 mi ENE 9.2 mph - N/A   Clear
3:56 PM 87.1 °F 85.7 °F 55.9 °F 35% 29.89 in 10.0 mi NE 6.9 mph - N/A   Clear
4:56 PM 87.1 °F 85.9 °F 57.0 °F 36% 29.88 in 10.0 mi ENE 9.2 mph - N/A   Clear
5:56 PM 86.0 °F 84.9 °F 57.0 °F 37% 29.88 in 10.0 mi ENE 9.2 mph - N/A   Clear
6:56 PM 82.9 °F 82.4 °F 57.0 °F 41% 29.88 in 10.0 mi ENE 6.9 mph - N/A   Clear
7:56 PM 77.0 °F - 57.9 °F 52% 29.88 in 9.0 mi Calm Calm - N/A   Clear
8:56 PM 69.1 °F - 55.9 °F 63% 29.90 in 10.0 mi Calm Calm - N/A   Clear
9:56 PM 62.1 °F - 55.0 °F 78% 29.92 in 10.0 mi SSW 3.5 mph - N/A   Clear
10:56 PM 64.0 °F - 57.0 °F 78% 29.92 in 10.0 mi SW 6.9 mph - N/A   Clear